When you browse on this site, cookies collect data to enhance your experience and personalize the content and advertising you see.
Visit our Privacy Policy to learn more. By continuing to use the site, you agree to this use of cookies and data.
  • In Hungary
  • List of Countries
  • For 7 days
  • Water Temperature
  • Weather Map
  • News
  • Weather Widgets
  • user-avatar
    Login

    Hourly Weather Lauga

    Today, 24 January, Friday

    Time Temperature Precipitation Wind Pressure Humidity
    00:00 -4°C° 0.1 mm 4 mps 738 mmHg 83%
    01:00 -4°C° 0.1 mm 4 mps 737 mmHg 87%
    02:00 -4°C° 0 mm 4 mps 736 mmHg 90%
    03:00 -4°C° 0.1 mm 4 mps 736 mmHg 92%
    04:00 -4°C° 0.1 mm 4 mps 735 mmHg 93%
    05:00 -3°C° 0.1 mm 4 mps 734 mmHg 94%
    06:00 -3°C° 0.4 mm 4 mps 733 mmHg 95%
    07:00 -2°C° 0.4 mm 4 mps 733 mmHg 96%
    08:00 -2°C° 0 mm 4 mps 732 mmHg 96%
    09:00 -1°C° 0.1 mm 4 mps 732 mmHg 94%
    10:00 -1°C° 0.1 mm 5 mps 732 mmHg 91%
    11:00 0°C° 0.1 mm 5 mps 731 mmHg 89%
    12:00 0°C° 0 mm 5 mps 731 mmHg 89%
    13:00 0°C° 0 mm 5 mps 731 mmHg 90%
    14:00 +1°C° 0 mm 5 mps 730 mmHg 90%
    15:00 +1°C° 0.2 mm 5 mps 730 mmHg 91%
    16:00 +1°C° 0.2 mm 5 mps 729 mmHg 93%
    17:00 0°C° 0.2 mm 4 mps 729 mmHg 95%
    18:00 0°C° 0.1 mm 4 mps 729 mmHg 95%
    19:00 +1°C° 0.1 mm 4 mps 729 mmHg 95%
    20:00 +1°C° 0.1 mm 4 mps 729 mmHg 95%
    21:00 +1°C° 0.2 mm 5 mps 729 mmHg 93%
    22:00 +1°C° 0.2 mm 5 mps 729 mmHg 91%
    23:00 +1°C° 0.2 mm 6 mps 729 mmHg 90%

    Tomorrow, 25 January, Saturday

    Time Temperature Precipitation Wind Pressure Humidity
    00:00 0°C° 0 mm 5 mps 729 mmHg 89%
    01:00 0°C° 0 mm 5 mps 729 mmHg 89%
    02:00 -1°C° 0 mm 4 mps 729 mmHg 88%
    03:00 -1°C° 0 mm 4 mps 729 mmHg 89%
    04:00 -1°C° 0 mm 4 mps 729 mmHg 91%
    05:00 -2°C° 0 mm 4 mps 729 mmHg 92%
    06:00 -1°C° 0 mm 4 mps 728 mmHg 90%
    07:00 -1°C° 0 mm 5 mps 728 mmHg 87%
    08:00 0°C° 0 mm 5 mps 728 mmHg 85%
    09:00 -1°C° 0.1 mm 6 mps 728 mmHg 80%
    10:00 -1°C° 0.1 mm 7 mps 728 mmHg 76%
    11:00 -1°C° 0.1 mm 7 mps 728 mmHg 71%
    12:00 -2°C° 0.1 mm 7 mps 728 mmHg 68%
    13:00 -2°C° 0.1 mm 7 mps 728 mmHg 64%
    14:00 -2°C° 0.1 mm 7 mps 729 mmHg 61%
    15:00 -3°C° 0 mm 6 mps 729 mmHg 63%
    16:00 -3°C° 0 mm 6 mps 730 mmHg 66%
    17:00 -4°C° 0 mm 6 mps 730 mmHg 68%
    18:00 -4°C° 0 mm 6 mps 731 mmHg 70%
    19:00 -4°C° 0 mm 6 mps 731 mmHg 71%
    20:00 -4°C° 0 mm 6 mps 731 mmHg 72%
    21:00 -4°C° 0 mm 6 mps 732 mmHg 73%
    22:00 -5°C° 0 mm 6 mps 733 mmHg 73%
    23:00 -5°C° 0 mm 6 mps 734 mmHg 74%

    Day after tomorrow, 26 January, Sunday

    Time Temperature Precipitation Wind Pressure Humidity
    00:00 -5°C° 0 mm 5 mps 735 mmHg 75%
    01:00 -5°C° 0 mm 5 mps 735 mmHg 77%
    02:00 -4°C° 0 mm 4 mps 736 mmHg 78%
    03:00 -4°C° 0 mm 4 mps 737 mmHg 79%
    04:00 -4°C° 0 mm 4 mps 737 mmHg 80%
    05:00 -5°C° 0 mm 3 mps 738 mmHg 81%
    06:00 -5°C° 0 mm 3 mps 738 mmHg 81%
    07:00 -5°C° 0 mm 3 mps 738 mmHg 81%
    08:00 -4°C° 0 mm 2 mps 738 mmHg 81%
    09:00 -4°C° 0 mm 3 mps 738 mmHg 80%
    10:00 -4°C° 0 mm 3 mps 738 mmHg 79%
    11:00 -3°C° 0 mm 4 mps 738 mmHg 78%
    12:00 -3°C° 0.3 mm 4 mps 738 mmHg 83%
    13:00 -4°C° 0.3 mm 5 mps 737 mmHg 88%
    14:00 -2°C° 0.3 mm 5 mps 737 mmHg 93%
    15:00 -1°C° 0.6 mm 5 mps 737 mmHg 94%
    16:00 -1°C° 0.6 mm 5 mps 736 mmHg 95%
    17:00 0°C° 0.6 mm 5 mps 736 mmHg 96%
    18:00 0°C° 0.3 mm 5 mps 736 mmHg 96%
    19:00 +1°C° 0.3 mm 5 mps 736 mmHg 95%
    20:00 +1°C° 0.3 mm 5 mps 736 mmHg 94%
    21:00 +1°C° 0 mm 5 mps 737 mmHg 93%
    22:00 +1°C° 0 mm 5 mps 737 mmHg 92%
    23:00 +1°C° 0 mm 5 mps 737 mmHg 91%

    27 January, Monday

    Time Temperature Precipitation Wind Pressure Humidity
    00:00 +1°C° 0 mm 5 mps 737 mmHg 92%
    01:00 0°C° 0 mm 5 mps 737 mmHg 94%
    02:00 0°C° 0 mm 5 mps 737 mmHg 95%
    03:00 0°C° 0 mm 4 mps 737 mmHg 95%
    04:00 0°C° 0 mm 4 mps 737 mmHg 96%
    05:00 0°C° 0 mm 4 mps 737 mmHg 96%
    06:00 0°C° 0.1 mm 4 mps 737 mmHg 97%
    07:00 0°C° 0.1 mm 4 mps 737 mmHg 97%
    08:00 +1°C° 0.1 mm 3 mps 737 mmHg 97%
    09:00 +1°C° 0.1 mm 3 mps 737 mmHg 97%
    10:00 +1°C° 0.1 mm 3 mps 737 mmHg 97%
    11:00 +1°C° 0.1 mm 3 mps 738 mmHg 96%
    12:00 +1°C° 0.1 mm 3 mps 737 mmHg 97%
    13:00 +1°C° 0.1 mm 3 mps 737 mmHg 97%
    14:00 +1°C° 0.1 mm 3 mps 737 mmHg 97%
    15:00 +1°C° 0.2 mm 3 mps 737 mmHg 97%
    16:00 +1°C° 0.2 mm 3 mps 737 mmHg 97%
    17:00 +1°C° 0.2 mm 3 mps 737 mmHg 97%
    18:00 +1°C° 0.2 mm 2 mps 737 mmHg 97%
    19:00 +1°C° 0.2 mm 2 mps 737 mmHg 98%
    20:00 +1°C° 0.2 mm 2 mps 737 mmHg 98%
    21:00 +1°C° 0.2 mm 2 mps 737 mmHg 98%
    22:00 +1°C° 0.2 mm 2 mps 737 mmHg 98%
    23:00 +1°C° 0.2 mm 2 mps 737 mmHg 98%

    28 January, Tuesday

    Time Temperature Precipitation Wind Pressure Humidity
    00:00 +1°C° 0 mm 2 mps 737 mmHg 98%
    01:00 +1°C° 0 mm 2 mps 737 mmHg 98%
    02:00 +1°C° 0 mm 2 mps 737 mmHg 98%
    03:00 +1°C° 0 mm 2 mps 737 mmHg 98%
    04:00 +2°C° 0 mm 1 mps 737 mmHg 98%
    05:00 +1°C° 0 mm 1 mps 737 mmHg 98%
    06:00 -1°C° 0 mm 2 mps 737 mmHg 98%
    07:00 -1°C° 0 mm 2 mps 736 mmHg 97%
    08:00 -1°C° 0 mm 2 mps 736 mmHg 97%
    09:00 -1°C° 0 mm 2 mps 736 mmHg 95%
    10:00 -1°C° 0 mm 2 mps 736 mmHg 93%
    11:00 -1°C° 0 mm 2 mps 736 mmHg 91%
    12:00 +1°C° 0 mm 2 mps 736 mmHg 90%
    13:00 +1°C° 0 mm 2 mps 736 mmHg 90%
    14:00 +1°C° 0 mm 2 mps 736 mmHg 89%
    15:00 -1°C° 0 mm 2 mps 736 mmHg 90%
    16:00 -1°C° 0 mm 2 mps 736 mmHg 92%
    17:00 -2°C° 0 mm 3 mps 736 mmHg 93%
    18:00 -1°C° 0 mm 3 mps 736 mmHg 92%
    19:00 -1°C° 0 mm 3 mps 736 mmHg 91%
    20:00 -1°C° 0 mm 3 mps 736 mmHg 90%
    21:00 -1°C° 0 mm 3 mps 735 mmHg 90%
    22:00 -1°C° 0 mm 3 mps 735 mmHg 90%
    23:00 -1°C° 0 mm 3 mps 735 mmHg 91%

    29 January, Wednesday

    Time Temperature Precipitation Wind Pressure Humidity
    00:00 -1°C° 0 mm 3 mps 735 mmHg 92%
    01:00 -1°C° 0 mm 3 mps 735 mmHg 94%
    02:00 -1°C° 0 mm 3 mps 734 mmHg 95%
    03:00 -1°C° 0 mm 4 mps 734 mmHg 94%
    04:00 -1°C° 0 mm 4 mps 734 mmHg 93%
    05:00 -1°C° 0 mm 4 mps 733 mmHg 91%
    06:00 -1°C° 0 mm 4 mps 733 mmHg 91%
    07:00 -1°C° 0 mm 5 mps 733 mmHg 90%
    08:00 -1°C° 0 mm 5 mps 732 mmHg 89%
    09:00 -1°C° 0 mm 5 mps 732 mmHg 88%
    10:00 -1°C° 0 mm 5 mps 732 mmHg 87%
    11:00 -1°C° 0 mm 5 mps 732 mmHg 87%
    12:00 -1°C° 0.2 mm 5 mps 731 mmHg 89%
    13:00 -1°C° 0.2 mm 5 mps 731 mmHg 92%
    14:00 -2°C° 0.2 mm 5 mps 730 mmHg 95%
    15:00 -2°C° 0.2 mm 5 mps 730 mmHg 95%
    16:00 -1°C° 0.2 mm 5 mps 730 mmHg 96%
    17:00 -1°C° 0.2 mm 4 mps 730 mmHg 96%
    18:00 -1°C° 0.3 mm 4 mps 729 mmHg 96%
    19:00 -1°C° 0.3 mm 4 mps 729 mmHg 96%
    20:00 -1°C° 0.3 mm 4 mps 729 mmHg 97%
    21:00 0°C° 0.3 mm 3 mps 728 mmHg 97%
    22:00 0°C° 0.3 mm 3 mps 728 mmHg 97%
    23:00 0°C° 0.3 mm 3 mps 728 mmHg 97%
    Show more